Tracking 29091 objects as of 17-Jul-2024
HD Live streaming from Space Station
objects crossing your sky now

SL-8 R/B

Track SL-8 R/B now!
10-day predictions


NORAD ID: 13003
Int'l Code: 1981-120G
Perigee: 1,659.1 km
Apogee: 1,793.3 km
Inclination: 83.0 °
Period: 120.9 minutes
Semi major axis: 8097 km
RCS: 6.3263 m2 (large)
Launch date: December 17, 1981
Source: Commonwealth of Independent States (former USSR) (CIS)
Launch site: PLESETSK MISSILE AND SPACE COMPLEX (PKMTR)

Note: This is a ROCKET BODY
Your satellite tracking list
Your tracking list is empty




NASA's NSSDC Master Catalog

Two Line Element Set (TLE):
1 13003U 81120G   24198.91228965  .00000017  00000-0  99072-4 0  9994
2 13003  82.9575 321.6822 0082869 151.5435 345.4280 11.91520879852011
Source of the keplerian elements: AFSPC